User: anonymous   Login
Location: Unspecified
(0.0000°N, 0.0000°E)
Time: 09:17:47
(UTC+00:00)
Language:

NORSAT 1 - Orbit

View from above orbital plane
View from above orbital plane
View from above satellite
View from above satellite

Ground track
Ground track

The orbit data is extracted from the following two-line orbital elements,

1 42826U 17042B   18019.17653024  .00000215  00000-0  27394-4 0  9990
2 42826  97.6073 286.9745 0014666 337.8567  22.2016 14.90621866 28139
Epoch (UTC): 19 January 2018 04:14:12
Eccentricity: 0.0014666
inclination: 97.6073°
perigee height: 586 km
apogee height: 606 km
right ascension of ascending node: 286.9745°
argument of perigee: 337.8567°
revolutions per day: 14.90621866
mean anomaly at epoch: 22.2016°
orbit number at epoch: 2813

The dashed part of the orbit path shows where the satellite is in the earth's shadow,  

DLR